| time (UTC) | temp C | wind direction | speed KPH | gust KPH | rain 1hr cm | rain 24hr cm | rain mn cm | humidity % | barometer mb |
| 20260904060048 | 9 | 18 | 0.0 | 0.0 | 0.00 | 0.00 | 0.00 | 64 | 1023.6 |
| 20260904054550 | 10 | 18 | 0.0 | 0.0 | 0.00 | 0.00 | 0.00 | 64 | 1023.7 |
| 20260904053059 | 10 | 16 | 0.0 | 1.6 | 0.00 | 0.00 | 0.00 | 62 | 1023.5 |
| 20260904051555 | 10 | 14 | 0.0 | 3.2 | 0.00 | 0.00 | 0.00 | 62 | 1023.4 |
| 20260904050045 | 10 | 354 | 1.6 | 4.8 | 0.00 | 0.00 | 0.00 | 63 | 1023.4 |
| 20260904044503 | 10 | 162 | 0.0 | 3.2 | 0.00 | 0.00 | 0.00 | 65 | 1023.6 |
| 20260904043058 | 10 | 115 | 0.0 | 1.6 | 0.00 | 0.00 | 0.00 | 66 | 1023.7 |
| 20260904041547 | 11 | 11 | 0.0 | 1.6 | 0.00 | 0.00 | 0.00 | 64 | 1023.6 |
| 20260904040058 | 11 | 13 | 0.0 | 1.6 | 0.00 | 0.00 | 0.00 | 61 | 1023.5 |
| 20260904034554 | 12 | 13 | 0.0 | 0.0 | 0.00 | 0.00 | 0.00 | 61 | 1023.4 |
| 20260904033043 | 12 | 13 | 0.0 | 1.6 | 0.00 | 0.00 | 0.00 | 57 | 1023.5 |
| 20260904031558 | 13 | 96 | 0.0 | 6.4 | 0.00 | 0.00 | 0.00 | 56 | 1023.5 |
| 20260904030053 | 13 | 79 | 1.6 | 4.8 | 0.00 | 0.00 | 0.00 | 54 | 1023.5 |
| 20260904024550 | 13 | 61 | 0.0 | 6.4 | 0.00 | 0.00 | 0.00 | 54 | 1023.6 |
| 20260904023058 | 13 | 62 | 1.6 | 4.8 | 0.00 | 0.00 | 0.00 | 52 | 1023.6 |
| 20260904021557 | 13 | 114 | 0.0 | 6.4 | 0.00 | 0.00 | 0.00 | 52 | 1023.6 |
| 20260904020045 | 13 | 75 | 1.6 | 6.4 | 0.00 | 0.00 | 0.00 | 52 | 1023.7 |
| 20260904014642 | 14 | 89 | 1.6 | 3.2 | 0.00 | 0.00 | 0.00 | 50 | 1023.9 |
| 20260904013056 | 14 | 293 | 0.0 | 8.0 | 0.00 | 0.00 | 0.00 | 48 | 1024.0 |
| 20260904011547 | 15 | 270 | 1.6 | 6.4 | 0.00 | 0.00 | 0.00 | 48 | 1024.1 |
| 20260904010057 | 14 | 257 | 0.0 | 4.8 | 0.00 | 0.00 | 0.00 | 51 | 1024.1 |
| 20260904004553 | 13 | 69 | 0.0 | 3.2 | 0.00 | 0.00 | 0.00 | 51 | 1024.1 |
| 20260904003042 | 13 | 102 | 0.0 | 3.2 | 0.00 | 0.00 | 0.00 | 51 | 1024.3 |
| 20260904001554 | 12 | 248 | 0.0 | 3.2 | 0.00 | 0.00 | 0.00 | 51 | 1024.5 |
| 20260904000137 | 12 | 113 | 1.6 | 4.8 | 0.00 | 0.00 | 0.00 | 50 | 1024.5 |
| 20260903234547 | 13 | 144 | 1.6 | 6.4 | 0.00 | 0.00 | 0.00 | 51 | 1024.3 |
| 20260903233058 | 13 | 72 | 1.6 | 4.8 | 0.00 | 0.00 | 0.00 | 49 | 1024.7 |
| 20260903231601 | 12 | 98 | 1.6 | 4.8 | 0.00 | 0.00 | 0.00 | 50 | 1025.1 |
| 20260903230044 | 12 | 293 | 1.6 | 6.4 | 0.00 | 0.00 | 0.00 | 50 | 1025.4 |
| 20260903224503 | 12 | 198 | 1.6 | 9.7 | 0.00 | 0.00 | 0.00 | 49 | 1025.0 |
| 20260903223050 | 12 | 243 | 4.8 | 9.7 | 0.00 | 0.00 | 0.00 | 50 | 1025.2 |
| 20260903221506 | 12 | 241 | 4.8 | 8.0 | 0.00 | 0.00 | 0.00 | 51 | 1025.3 |
| 20260903220113 | 11 | 231 | 1.6 | 8.0 | 0.00 | 0.00 | 0.00 | 50 | 1025.1 |
| 20260903214558 | 11 | 259 | 3.2 | 11.3 | 0.00 | 0.00 | 0.00 | 49 | 1025.5 |
| 20260903213049 | 11 | 228 | 1.6 | 6.4 | 0.00 | 0.00 | 0.00 | 48 | 1025.2 |
| 20260903211501 | 11 | 260 | 3.2 | 9.7 | 0.00 | 0.00 | 0.00 | 52 | 1025.6 |
| 20260903210054 | 11 | 258 | 1.6 | 6.4 | 0.00 | 0.00 | 0.00 | 55 | 1025.5 |
| 20260903204551 | 11 | 264 | 4.8 | 9.7 | 0.00 | 0.00 | 0.00 | 54 | 1025.7 |
| 20260903203003 | 11 | 238 | 4.8 | 14.5 | 0.00 | 0.00 | 0.00 | 54 | 1025.7 |
| 20260903201557 | 11 | 214 | 4.8 | 11.3 | 0.00 | 0.00 | 0.00 | 52 | 1025.7 |
| 20260903200053 | 11 | 162 | 3.2 | 6.4 | 0.00 | 0.00 | 0.00 | 54 | 1025.4 |
| 20260903194509 | 9 | 290 | 0.0 | 4.8 | 0.00 | 0.00 | 0.00 | 57 | 1025.5 |
| 20260903193055 | 8 | 221 | 1.6 | 6.4 | 0.00 | 0.00 | 0.00 | 60 | 1025.5 |
| 20260903191553 | 8 | 258 | 0.0 | 6.4 | 0.00 | 0.00 | 0.00 | 64 | 1025.8 |
| 20260903190107 | 7 | 287 | 3.2 | 6.4 | 0.00 | 0.00 | 0.00 | 64 | 1025.8 |
| 20260903184552 | 6 | 170 | 3.2 | 9.7 | 0.00 | 0.03 | 0.00 | 67 | 1026.0 |
| 20260903183047 | 6 | 167 | 1.6 | 3.2 | 0.00 | 0.03 | 0.00 | 70 | 1025.9 |
| 20260903181558 | 5 | 244 | 1.6 | 3.2 | 0.00 | 0.03 | 0.00 | 70 | 1025.8 |
| 20260903180054 | 6 | 125 | 1.6 | 4.8 | 0.00 | 0.03 | 0.00 | 69 | 1025.7 |
| 20260903174548 | 5 | 244 | 0.0 | 3.2 | 0.00 | 0.03 | 0.00 | 76 | 1025.6 |
| 20260903173058 | 5 | 116 | 0.0 | 3.2 | 0.00 | 0.03 | 0.00 | 76 | 1025.6 |
| 20260903171557 | 5 | 112 | 0.0 | 3.2 | 0.00 | 0.03 | 0.00 | 77 | 1026.0 |
| 20260903170057 | 3 | 260 | 0.0 | 0.0 | 0.00 | 0.03 | 0.00 | 84 | 1025.8 |
| 20260903164503 | 1 | 264 | 0.0 | 1.6 | 0.00 | 0.03 | 0.00 | 89 | 1025.6 |
| 20260903163109 | 0 | 18 | 0.0 | 0.0 | 0.00 | 0.03 | 0.00 | 91 | 1025.2 |
| 20260903161549 | 0 | 20 | 0.0 | 0.0 | 0.00 | 0.03 | 0.00 | 91 | 1024.9 |
| 20260903154554 | -1 | 20 | 0.0 | 0.0 | 0.00 | 0.03 | 0.00 | 93 | 1025.0 |
| 20260903153045 | -1 | 20 | 0.0 | 0.0 | 0.00 | 0.03 | 0.00 | 93 | 1024.9 |
| 20260903151556 | -1 | 20 | 0.0 | 0.0 | 0.00 | 0.03 | 0.00 | 92 | 1024.8 |
| 20260903150110 | -1 | 20 | 0.0 | 0.0 | 0.00 | 0.03 | 0.00 | 93 | 1024.9 |
| 20260903144548 | -1 | 20 | 0.0 | 0.0 | 0.00 | 0.03 | 0.00 | 94 | 1024.8 |
| 20260903143100 | -1 | 20 | 0.0 | 0.0 | 0.00 | 0.03 | 0.00 | 93 | 1024.8 |
| 20260903141559 | -1 | 20 | 0.0 | 0.0 | 0.00 | 0.03 | 0.00 | 94 | 1024.5 |
| 20260903140047 | -2 | 20 | 0.0 | 0.0 | 0.00 | 0.03 | 0.00 | 93 | 1024.3 |
| 20260903134503 | -2 | 20 | 0.0 | 0.0 | 0.00 | 0.03 | 0.00 | 93 | 1024.2 |
| 20260903133053 | -2 | 20 | 0.0 | 0.0 | 0.00 | 0.03 | 0.00 | 91 | 1024.4 |
| 20260903131547 | -1 | 20 | 0.0 | 0.0 | 0.00 | 0.03 | 0.00 | 94 | 1024.1 |
| 20260903130105 | -2 | 20 | 0.0 | 0.0 | 0.00 | 0.03 | 0.00 | 94 | 1024.0 |
| 20260903124602 | -1 | 20 | 0.0 | 0.0 | 0.00 | 0.03 | 0.00 | 95 | 1023.9 |
| 20260903123044 | -1 | 20 | 0.0 | 0.0 | 0.00 | 0.03 | 0.00 | 92 | 1023.8 |
| 20260903121600 | -1 | 21 | 0.0 | 0.0 | 0.00 | 0.03 | 0.00 | 92 | 1023.6 |
| 20260903120053 | -1 | 20 | 0.0 | 0.0 | 0.00 | 0.03 | 0.00 | 92 | 1023.6 |
| 20260903114502 | -1 | 20 | 0.0 | 0.0 | 0.00 | 0.03 | 0.00 | 92 | 1023.3 |
| 20260903113105 | -1 | 20 | 0.0 | 0.0 | 0.00 | 0.03 | 0.00 | 92 | 1023.2 |
| 20260903111614 | 0 | 20 | 0.0 | 0.0 | 0.00 | 0.03 | 0.00 | 93 | 1023.3 |
| 20260903110047 | 0 | 20 | 0.0 | 0.0 | 0.00 | 0.03 | 0.00 | 90 | 1023.2 |
| 20260903104501 | 0 | 20 | 0.0 | 0.0 | 0.00 | 0.03 | 0.00 | 92 | 1023.2 |
| 20260903103104 | -1 | 20 | 0.0 | 1.6 | 0.00 | 0.03 | 0.00 | 92 | 1023.0 |
| 20260903101556 | -1 | 20 | 0.0 | 1.6 | 0.00 | 0.03 | 0.00 | 91 | 1022.9 |
| 20260903100002 | -1 | 20 | 0.0 | 0.0 | 0.00 | 0.03 | 0.00 | 92 | 1022.7 |
| 20260903094600 | 0 | 20 | 0.0 | 1.6 | 0.00 | 0.03 | 0.00 | 89 | 1022.6 |
| 20260903093121 | 0 | 89 | 0.0 | 0.0 | 0.00 | 0.03 | 0.00 | 88 | 1022.5 |
| 20260903091600 | 0 | 89 | 0.0 | 0.0 | 0.00 | 0.03 | 0.00 | 89 | 1022.2 |
| 20260903090047 | 0 | 14 | 0.0 | 1.6 | 0.00 | 0.03 | 0.00 | 89 | 1022.0 |
| 20260903084547 | 0 | 356 | 0.0 | 0.0 | 0.00 | 0.03 | 0.00 | 90 | 1021.9 |
| 20260903083100 | 0 | 356 | 0.0 | 0.0 | 0.00 | 0.03 | 0.00 | 87 | 1022.0 |
| 20260903081554 | 0 | 355 | 0.0 | 0.0 | 0.00 | 0.03 | 0.00 | 83 | 1021.9 |
| 20260903080044 | 0 | 356 | 0.0 | 0.0 | 0.00 | 0.03 | 0.00 | 88 | 1021.7 |
| 20260903074558 | 0 | 356 | 0.0 | 1.6 | 0.00 | 0.03 | 0.03 | 80 | 1021.4 |
| 20260903073053 | 2 | 356 | 0.0 | 0.0 | 0.00 | 0.03 | 0.03 | 81 | 1021.5 |
| 20260903071610 | 2 | 355 | 0.0 | 1.6 | 0.00 | 0.03 | 0.03 | 79 | 1021.3 |
| 20260903070104 | 2 | 5 | 1.6 | 3.2 | 0.00 | 0.03 | 0.03 | 72 | 1021.2 |
| 20260903064604 | 2 | 327 | 0.0 | 3.2 | 0.00 | 0.03 | 0.03 | 66 | 1020.9 |
| 20260903063045 | 3 | 192 | 0.0 | 3.2 | 0.00 | 0.03 | 0.03 | 63 | 1020.5 |
| 20260903061603 | 4 | 349 | 0.0 | 3.2 | 0.00 | 0.03 | 0.03 | 59 | 1020.1 |